FW7718 Weather Reports


Display with metric or nautical units.
time (UTC)temp
F
wind
direction
speed
MPH
gust
MPH
rain 1hr
in
rain 24hr
in
rain mn
in
humidity
%
barometer
mb
20260509135330 73 129 2.0 2.0 0.00 0.00 0.00 93 1011.7
20260509134827 72 95 1.0 2.0 0.00 0.00 0.00 94 1011.7
20260509134324 72 152 3.0 3.0 0.00 0.00 0.00 94 1011.8
20260509133820 72 116 1.0 2.0 0.00 0.00 0.00 94 1011.8
20260509133317 72 109 3.0 3.0 0.00 0.00 0.00 95 1011.8
20260509132816 71 105 2.0 3.0 0.00 0.00 0.00 95 1011.9
20260509132314 71 105 2.0 2.0 0.00 0.00 0.00 95 1011.6
20260509131811 71 108 3.0 3.0 0.00 0.00 0.00 95 1011.6
20260509131308 71 93 3.0 5.0 0.00 0.00 0.00 95 1011.7
20260509130804 71 109 2.0 2.0 0.00 0.00 0.00 96 1011.6
20260509130259 71 114 3.0 5.0 0.00 0.00 0.00 96 1011.8
20260509125756 70 97 3.0 3.0 0.00 0.00 0.00 96 1011.7
20260509125253 70 94 2.0 2.0 0.00 0.00 0.00 96 1011.8
20260509124750 69 93 1.0 1.0 0.00 0.00 0.00 96 1011.7
20260509124246 69 81 2.0 2.0 0.00 0.00 0.00 96 1011.6
20260509123744 69 80 3.0 5.0 0.00 0.00 0.00 96 1011.9
20260509123241 69 88 3.0 3.0 0.00 0.00 0.00 97 1011.7
20260509122737 69 90 3.0 3.0 0.00 0.00 0.00 96 1011.9
20260509122234 69 79 2.0 2.0 0.00 0.00 0.00 96 1011.9
20260509121730 69 87 1.0 1.0 0.00 0.00 0.00 96 1012.0
20260509121228 69 96 1.0 1.0 0.00 0.00 0.00 96 1011.9
20260509120726 69 97 1.0 1.0 0.00 0.00 0.00 96 1011.9
20260509120224 69 69 1.0 1.0 0.00 0.00 0.00 96 1011.8
20260509115721 69 67 0.0 0.0 0.00 0.00 0.00 96 1011.9
20260509115218 69 66 0.0 0.0 0.00 0.00 0.00 96 1011.7
20260509114717 69 66 0.0 1.0 0.00 0.00 0.00 96 1011.9
20260509114215 69 66 0.0 0.0 0.00 0.00 0.00 96 1011.5
20260509113713 69 66 0.0 1.0 0.00 0.00 0.00 96 1011.6
20260509113210 69 66 0.0 1.0 0.00 0.00 0.00 96 1011.5
20260509112706 69 66 0.0 0.0 0.00 0.00 0.00 96 1011.5
20260509112203 68 65 1.0 1.0 0.00 0.00 0.00 96 1011.4
20260509111700 68 65 1.0 1.0 0.00 0.00 0.00 96 1011.5
20260509111157 68 65 1.0 1.0 0.00 0.00 0.00 96 1011.4
20260509110654 68 64 1.0 1.0 0.00 0.00 0.00 96 1011.0
20260509110151 68 65 1.0 1.0 0.00 0.00 0.00 96 1011.2
20260509105650 68 66 2.0 2.0 0.00 0.00 0.00 96 1010.7
20260509105147 68 86 2.0 2.0 0.00 0.00 0.00 96 1010.7
20260509104644 68 116 2.0 2.0 0.00 0.00 0.00 96 1010.6
20260509104141 68 105 1.0 1.0 0.00 0.00 0.00 95 1010.5
20260509103639 68 106 1.0 1.0 0.00 0.00 0.00 95 1010.7
20260509103136 69 165 2.0 3.0 0.00 0.00 0.00 95 1010.3
20260509102634 69 153 1.0 2.0 0.00 0.00 0.00 95 1010.3
20260509102131 68 174 2.0 2.0 0.00 0.00 0.00 95 1010.3
20260509101627 69 163 3.0 3.0 0.00 0.00 0.00 95 1010.3
20260509101124 69 184 3.0 3.0 0.00 0.00 0.00 95 1010.4
20260509100621 68 201 4.0 5.0 0.00 0.00 0.00 95 1010.2
20260509100118 68 196 3.0 3.0 0.00 0.00 0.00 95 1010.4
20260509095614 68 140 0.0 1.0 0.00 0.00 0.00 95 1010.1
20260509095112 68 140 1.0 1.0 0.00 0.00 0.00 95 1010.3
20260509094608 68 156 4.0 5.0 0.00 0.00 0.00 95 1009.9
20260509094106 68 122 3.0 3.0 0.00 0.00 0.00 95 1009.6
20260509093604 68 146 4.0 6.0 0.00 0.00 0.00 95 1009.7
20260509093101 68 92 4.0 6.0 0.00 0.00 0.00 95 1010.1
20260509092558 68 82 4.0 5.0 0.00 0.00 0.00 95 1009.9
20260509092057 68 79 4.0 6.0 0.00 0.00 0.00 95 1009.7
20260509091554 68 78 4.0 5.0 0.00 0.00 0.00 95 1009.9
20260509091051 68 110 4.0 5.0 0.00 0.00 0.00 95 1010.0
20260509090548 68 101 4.0 6.0 0.00 0.00 0.00 95 1009.9
20260509090046 68 87 5.0 6.0 0.00 0.00 0.00 94 1010.0
20260509085543 68 91 4.0 5.0 0.00 0.00 0.00 94 1010.1
20260509085038 68 96 4.0 5.0 0.00 0.00 0.00 94 1010.4
20260509084536 68 103 4.0 5.0 0.00 0.00 0.00 94 1010.4
20260509084033 68 99 3.0 3.0 0.00 0.00 0.00 94 1010.9
20260509083530 68 87 2.0 2.0 0.00 0.00 0.00 94 1011.1
20260509083027 68 95 3.0 3.0 0.00 0.00 0.00 94 1010.7
20260509082525 68 97 1.0 2.0 0.00 0.00 0.00 94 1011.1
20260509082021 68 117 2.0 2.0 0.00 0.00 0.00 94 1011.2
20260509081519 68 117 2.0 2.0 0.00 0.00 0.00 94 1011.1
20260509081015 68 117 2.0 2.0 0.00 0.00 0.00 94 1011.3
20260509080513 68 117 1.0 1.0 0.00 0.00 0.00 94 1010.9
20260509080011 68 119 2.0 2.0 0.00 0.00 0.00 93 1011.3
20260509075508 68 118 2.0 2.0 0.00 0.00 0.00 93 1011.6
20260509075006 68 185 1.0 1.0 0.00 0.00 0.00 94 1011.7
20260509074503 68 109 1.0 1.0 0.00 0.00 0.00 93 1011.8
20260509073959 68 136 2.0 2.0 0.00 0.00 0.00 93 1012.0
20260509073456 68 75 3.0 3.0 0.00 0.00 0.00 93 1012.1
20260509072952 68 67 2.0 2.0 0.00 0.00 0.00 93 1012.4
20260509072449 68 71 1.0 2.0 0.00 0.00 0.00 93 1012.5
20260509071946 68 42 2.0 2.0 0.00 0.00 0.00 93 1012.6
20260509071442 69 44 2.0 2.0 0.00 0.00 0.00 93 1012.4
20260509070940 69 64 1.0 1.0 0.00 0.00 0.00 93 1012.3
20260509070437 69 66 2.0 2.0 0.00 0.00 0.00 93 1012.1
20260509065932 69 80 0.0 1.0 0.00 0.00 0.00 93 1012.3
20260509065428 69 78 1.0 1.0 0.00 0.00 0.00 93 1012.2
20260509064925 69 86 3.0 3.0 0.00 0.00 0.00 93 1012.4
20260509064423 69 78 3.0 5.0 0.00 0.00 0.00 93 1012.2
20260509063920 69 88 3.0 5.0 0.00 0.00 0.00 93 1012.4
20260509063416 69 77 3.0 3.0 0.00 0.00 0.00 93 1012.0
20260509062913 69 99 3.0 3.0 0.00 0.00 0.00 93 1011.8
20260509062410 69 94 3.0 3.0 0.00 0.00 0.00 93 1012.0
20260509061908 69 83 3.0 3.0 0.00 0.00 0.00 93 1012.0
20260509061406 69 91 4.0 5.0 0.00 0.00 0.00 92 1012.1
20260509060902 69 94 2.0 2.0 0.00 0.00 0.00 92 1012.2
20260509060359 69 103 2.0 2.0 0.00 0.00 0.00 92 1011.8
20260509055855 69 134 1.0 2.0 0.00 0.00 0.00 91 1012.0
20260509055350 69 182 2.0 2.0 0.00 0.00 0.00 91 1012.2
20260509054847 69 179 1.0 1.0 0.00 0.00 0.00 91 1012.0
20260509054344 69 179 1.0 1.0 0.00 0.00 0.00 91 1012.2
20260509053842 69 179 0.0 0.0 0.00 0.00 0.00 91 1012.2
20260509053339 69 179 0.0 0.0 0.00 0.00 0.00 91 1012.1
20260509052837 69 195 2.0 2.0 0.00 0.00 0.00 91 1012.1
20260509052335 69 195 2.0 2.0 0.00 0.00 0.00 90 1012.3
20260509051832 69 153 1.0 1.0 0.00 0.00 0.00 91 1012.1
20260509051330 69 156 1.0 2.0 0.00 0.00 0.00 91 1011.8
20260509050826 69 203 2.0 2.0 0.00 0.00 0.00 91 1011.9
20260509050323 69 183 4.0 5.0 0.00 0.00 0.00 92 1011.7
20260509045820 69 198 7.0 7.0 0.00 0.19 0.19 92 1011.5
20260509045317 69 210 3.0 3.0 0.00 0.19 0.19 92 1011.7
20260509044814 69 121 0.0 0.0 0.00 0.19 0.19 92 1012.0
20260509044312 69 120 0.0 0.0 0.00 0.19 0.19 92 1012.0
20260509043808 69 120 0.0 1.0 0.00 0.19 0.19 92 1011.7
20260509043304 69 99 3.0 3.0 0.00 0.19 0.19 92 1011.5
20260509042800 69 119 4.0 6.0 0.00 0.19 0.19 91 1011.8
20260509042257 69 152 5.0 7.0 0.00 0.19 0.19 91 1011.6
20260509041753 69 162 3.0 3.0 0.00 0.19 0.19 90 1012.0
20260509041250 69 141 6.0 8.0 0.00 0.19 0.19 89 1011.6
20260509040749 69 133 5.0 7.0 0.00 0.19 0.19 88 1011.0
20260509040246 70 192 7.0 9.0 0.00 0.19 0.19 87 1011.0
20260509035742 70 177 9.0 10.0 0.00 0.19 0.19 86 1011.2
20260509035239 70 141 5.0 6.0 0.00 0.19 0.19 86 1011.7
20260509034736 70 166 4.0 5.0 0.00 0.19 0.19 86 1011.9
20260509034234 70 168 2.0 2.0 0.00 0.19 0.19 86 1012.0
20260509033731 70 51 1.0 1.0 0.00 0.19 0.19 86 1012.1
20260509033228 70 57 1.0 1.0 0.00 0.19 0.19 86 1012.1
20260509032725 70 68 1.0 2.0 0.00 0.19 0.19 86 1012.2
20260509032222 70 66 1.0 2.0 0.00 0.19 0.19 86 1012.3
20260509031720 70 54 2.0 2.0 0.00 0.19 0.19 86 1011.9
20260509031217 70 11 3.0 3.0 0.00 0.19 0.19 84 1011.6
20260509030715 70 130 1.0 1.0 0.00 0.19 0.19 83 1011.3
20260509030212 71 132 1.0 1.0 0.00 0.19 0.19 82 1011.2
20260509025708 71 133 1.0 1.0 0.00 0.19 0.19 81 1011.5
20260509025204 71 133 0.0 0.0 0.00 0.19 0.19 81 1011.6
20260509024659 71 134 0.0 0.0 0.00 0.19 0.19 80 1011.8
20260509024155 71 134 0.0 0.0 0.00 0.19 0.19 81 1011.7
20260509023654 71 134 1.0 1.0 0.00 0.19 0.19 81 1011.4
20260509023150 71 134 0.0 1.0 0.00 0.19 0.19 81 1011.4
20260509022646 71 133 0.0 1.0 0.00 0.19 0.19 81 1011.2
20260509022144 71 147 2.0 2.0 0.00 0.19 0.19 80 1011.0
20260509021641 71 145 2.0 2.0 0.00 0.19 0.19 80 1011.0
20260509021138 71 147 1.0 1.0 0.00 0.19 0.19 80 1010.6
20260509020637 71 170 1.0 2.0 0.00 0.19 0.19 80 1010.5
20260509020133 71 139 1.0 1.0 0.00 0.19 0.19 80 1010.4
20260509015632 71 122 1.0 1.0 0.00 0.19 0.19 79 1010.4
20260509015129 71 120 1.0 1.0 0.00 0.19 0.19 78 1010.3
20260509014625 71 128 0.0 0.0 0.00 0.19 0.19 77 1010.7
20260509014122 72 141 0.0 1.0 0.00 0.19 0.19 77 1010.5
20260509013619 72 184 2.0 2.0 0.00 0.19 0.19 76 1010.3
20260509013114 72 192 4.0 5.0 0.00 0.19 0.19 76 1010.4
20260509012612 72 168 3.0 5.0 0.00 0.19 0.19 76 1010.3
20260509012108 72 174 3.0 5.0 0.00 0.19 0.19 75 1010.2
20260509011606 72 164 4.0 5.0 0.00 0.19 0.19 75 1010.4
20260509011103 72 195 3.0 5.0 0.00 0.19 0.19 75 1010.4
20260509010601 72 159 4.0 5.0 0.00 0.19 0.19 75 1010.3
20260509010057 72 167 2.0 2.0 0.00 0.19 0.19 75 1010.3
20260509005555 72 155 4.0 6.0 0.00 0.19 0.19 75 1010.2
20260509005050 73 197 3.0 5.0 0.00 0.19 0.19 75 1010.0
20260509004547 73 131 1.0 1.0 0.00 0.19 0.19 75 1009.9
20260509004044 73 152 1.0 2.0 0.00 0.19 0.19 74 1009.8
20260509003542 74 180 4.0 5.0 0.00 0.19 0.19 73 1009.7
20260509003039 74 191 4.0 5.0 0.00 0.19 0.19 72 1009.8
20260509002537 74 159 6.0 7.0 0.00 0.19 0.19 72 1009.9
20260509002034 74 175 5.0 6.0 0.00 0.19 0.19 71 1009.9
20260509001531 74 187 5.0 6.0 0.00 0.19 0.19 71 1009.9
20260509001027 74 180 6.0 9.0 0.00 0.19 0.19 71 1009.9
20260509000526 75 185 4.0 5.0 0.00 0.19 0.19 71 1009.9
20260509000021 75 211 4.0 6.0 0.00 0.19 0.19 72 1009.9
20260508235520 75 142 5.0 6.0 0.00 0.19 0.19 71 1009.8
20260508235015 75 180 5.0 6.0 0.00 0.19 0.19 70 1010.0
20260508234513 75 192 6.0 6.0 0.00 0.19 0.19 69 1010.1
20260508234010 75 131 7.0 9.0 0.00 0.19 0.19 69 1009.9
20260508233509 76 180 5.0 9.0 0.00 0.19 0.19 69 1010.2
20260508233006 76 192 8.0 9.0 0.00 0.19 0.19 68 1010.0
20260508232503 76 160 8.0 9.0 0.00 0.19 0.19 68 1010.2
20260508232000 77 195 8.0 9.0 0.00 0.19 0.19 65 1010.4
20260508231457 78 170 7.0 7.0 0.00 0.19 0.19 64 1010.3
20260508230954 78 140 4.0 5.0 0.00 0.19 0.19 63 1010.1
20260508230451 78 164 5.0 7.0 0.00 0.19 0.19 63 1010.4
20260508225948 77 98 5.0 6.0 0.00 0.19 0.19 63 1010.2
20260508225444 77 136 4.0 6.0 0.00 0.19 0.19 63 1010.1
20260508224942 77 179 5.0 7.0 0.00 0.19 0.19 63 1010.1
20260508224439 77 169 7.0 8.0 0.00 0.19 0.19 65 1009.9
20260508223936 77 135 6.0 7.0 0.00 0.19 0.19 63 1010.0
20260508223434 78 173 5.0 6.0 0.00 0.19 0.19 62 1010.0
20260508222931 78 209 4.0 5.0 0.00 0.19 0.19 62 1010.2
20260508222429 78 187 7.0 7.0 0.00 0.19 0.19 62 1010.0
20260508221925 78 117 5.0 5.0 0.00 0.19 0.19 62 1009.7
20260508221421 78 131 4.0 5.0 0.00 0.19 0.19 61 1009.6
20260508220917 77 121 5.0 7.0 0.00 0.19 0.19 64 1009.7
20260508220414 77 161 7.0 7.0 0.00 0.19 0.19 61 1009.6
20260508215910 77 178 9.0 10.0 0.00 0.19 0.19 62 1009.9
20260508215407 78 175 8.0 9.0 0.00 0.19 0.19 60 1010.4
20260508214904 78 187 6.0 7.0 0.00 0.19 0.19 63 1010.5
20260508214402 77 187 7.0 9.0 0.00 0.19 0.19 63 1010.5
20260508213858 76 172 7.0 8.0 0.00 0.19 0.19 66 1010.6
20260508213355 75 179 7.0 7.0 0.00 0.19 0.19 67 1010.7
20260508212850 75 194 7.0 8.0 0.00 0.19 0.19 67 1011.0
20260508212347 75 172 5.0 7.0 0.00 0.19 0.19 67 1011.1
20260508211843 76 188 7.0 8.0 0.00 0.19 0.19 66 1011.1
20260508211339 76 207 7.0 8.0 0.00 0.19 0.19 67 1011.0
20260508210837 76 210 9.0 10.0 0.00 0.19 0.19 65 1011.4
20260508210333 76 181 5.0 6.0 0.00 0.19 0.19 66 1011.6
20260508205830 76 188 5.0 6.0 0.00 0.19 0.19 67 1011.2
20260508205326 76 156 9.0 10.0 0.00 0.19 0.19 65 1011.4
20260508204822 76 181 6.0 7.0 0.00 0.19 0.19 65 1011.6
20260508204319 77 150 5.0 6.0 0.00 0.19 0.19 64 1011.6
20260508203815 77 143 4.0 6.0 0.00 0.19 0.19 62 1011.6
20260508203312 77 160 3.0 3.0 0.00 0.19 0.19 60 1011.6
20260508202807 77 205 4.0 5.0 0.00 0.19 0.19 60 1011.7
20260508202307 78 199 3.0 3.0 0.00 0.19 0.19 59 1011.9
20260508201802 78 215 4.0 5.0 0.00 0.19 0.19 61 1012.0
20260508201259 78 157 4.0 5.0 0.00 0.19 0.19 60 1012.0
20260508200755 78 209 5.0 7.0 0.00 0.19 0.19 58 1011.9
20260508200252 78 188 6.0 7.0 0.00 0.19 0.19 62 1012.0
20260508195748 77 110 3.0 3.0 0.00 0.19 0.19 61 1012.0
20260508195244 77 162 4.0 5.0 0.00 0.19 0.19 62 1012.0
20260508194741 77 203 4.0 5.0 0.00 0.19 0.19 63 1012.1
20260508194238 76 173 4.0 6.0 0.00 0.19 0.19 62 1012.2
20260508193735 76 188 6.0 7.0 0.00 0.19 0.19 62 1012.3
20260508193232 76 164 4.0 5.0 0.00 0.19 0.19 64 1012.0
20260508192728 76 135 5.0 7.0 0.00 0.19 0.19 61 1012.3
20260508192225 77 132 7.0 8.0 0.00 0.19 0.19 59 1012.3
20260508191723 78 164 4.0 5.0 0.00 0.19 0.19 58 1012.1
20260508191220 77 183 7.0 9.0 0.00 0.19 0.19 61 1012.5
20260508190717 78 165 3.0 3.0 0.00 0.19 0.19 59 1012.5
20260508190213 77 163 6.0 8.0 0.00 0.19 0.19 58 1012.6
20260508185709 77 182 8.0 9.0 0.00 0.19 0.19 57 1012.5
20260508185208 78 177 8.0 10.0 0.00 0.19 0.19 58 1012.6
20260508184705 77 172 7.0 8.0 0.00 0.19 0.19 60 1012.7
20260508184202 77 167 5.0 7.0 0.00 0.19 0.19 59 1012.7
20260508183658 77 119 5.0 7.0 0.00 0.19 0.19 58 1012.8
20260508183154 77 137 7.0 8.0 0.00 0.19 0.19 56 1012.9
20260508182650 76 69 2.0 2.0 0.00 0.19 0.19 60 1013.0
20260508182147 76 118 6.0 7.0 0.00 0.19 0.19 58 1013.1
20260508181642 76 114 8.0 10.0 0.00 0.19 0.19 64 1013.4
20260508181140 76 85 3.0 3.0 0.00 0.19 0.19 59 1013.5
20260508180636 75 120 3.0 3.0 0.00 0.19 0.19 62 1013.4
20260508180133 74 140 3.0 3.0 0.00 0.19 0.19 66 1013.6
20260508175630 73 119 4.0 5.0 0.00 0.19 0.19 65 1013.6
20260508175127 75 190 5.0 6.0 0.00 0.19 0.19 63 1013.8
20260508174624 74 159 3.0 3.0 0.00 0.19 0.19 64 1013.9
20260508174121 74 201 7.0 8.0 0.00 0.19 0.19 63 1014.1
20260508173618 74 141 4.0 5.0 0.00 0.19 0.19 63 1014.1
20260508173114 75 155 5.0 5.0 0.00 0.19 0.19 63 1014.2
20260508172611 74 155 3.0 5.0 0.00 0.19 0.19 67 1014.5
20260508172108 73 181 5.0 6.0 0.00 0.19 0.19 66 1014.3
20260508171604 72 183 5.0 6.0 0.00 0.19 0.19 63 1014.6
20260508171101 73 192 7.0 9.0 0.00 0.19 0.19 65 1014.7
20260508170558 73 204 7.0 8.0 0.00 0.19 0.19 70 1014.8
20260508170055 73 180 4.0 5.0 0.00 0.19 0.19 68 1014.6
20260508165552 73 230 6.0 7.0 0.00 0.19 0.19 66 1015.0
20260508165049 73 198 7.0 8.0 0.00 0.19 0.19 67 1015.2
20260508164546 72 199 3.0 6.0 0.00 0.19 0.19 65 1015.0
20260508164042 72 215 6.0 7.0 0.00 0.19 0.19 68 1015.2
20260508163540 72 152 5.0 7.0 0.00 0.19 0.19 70 1015.2
20260508163037 72 192 5.0 6.0 0.00 0.19 0.19 70 1015.3
20260508162533 71 199 4.0 5.0 0.00 0.19 0.19 71 1015.1
20260508162031 71 196 8.0 9.0 0.00 0.19 0.19 71 1015.5
20260508161527 71 196 6.0 7.0 0.00 0.19 0.19 69 1015.8
20260508161025 71 175 3.0 3.0 0.00 0.19 0.19 73 1015.5
20260508160523 70 139 2.0 3.0 0.00 0.19 0.19 73 1015.4
20260508160020 71 191 9.0 11.0 0.00 0.19 0.19 72 1015.5
20260508155517 70 149 5.0 7.0 0.00 0.19 0.19 75 1015.4
20260508155014 69 135 2.0 2.0 0.00 0.19 0.19 82 1015.4
20260508154511 68 120 3.0 3.0 0.00 0.19 0.19 82 1015.6
20260508154008 68 145 0.0 0.0 0.00 0.19 0.19 80 1015.9
20260508153504 67 128 2.0 2.0 0.00 0.19 0.19 82 1015.8
20260508153000 66 114 4.0 5.0 0.00 0.19 0.19 84 1015.5
20260508152458 66 124 4.0 6.0 0.00 0.19 0.19 83 1015.5
20260508151954 66 80 5.0 5.0 0.00 0.19 0.19 83 1015.4
20260508151450 66 83 1.0 2.0 0.00 0.19 0.19 84 1015.5
20260508150947 65 101 4.0 6.0 0.00 0.19 0.19 83 1015.6
20260508150444 65 99 4.0 5.0 0.00 0.19 0.19 83 1015.9
20260508145939 65 56 3.0 5.0 0.00 0.19 0.19 85 1016.0
20260508145436 65 100 4.0 5.0 0.00 0.19 0.19 84 1015.9
20260508144933 64 80 3.0 3.0 0.00 0.19 0.19 86 1015.9
20260508144431 64 84 4.0 5.0 0.00 0.19 0.19 88 1016.0
20260508143928 63 88 3.0 3.0 0.00 0.19 0.19 91 1016.2
20260508143426 63 49 2.0 2.0 0.00 0.19 0.19 91 1016.1
20260508142922 64 58 3.0 3.0 0.00 0.19 0.19 93 1016.5
20260508142419 62 64 2.0 2.0 0.00 0.19 0.19 94 1016.5
20260508141915 62 42 2.0 2.0 0.00 0.19 0.19 94 1016.6
20260508141412 62 61 1.0 2.0 0.00 0.19 0.19 94 1016.5
20260508140910 62 86 1.0 2.0 0.00 0.19 0.19 95 1016.2
20260508140406 62 82 0.0 0.0 0.00 0.19 0.19 95 1016.2
20260508135902 62 87 3.0 3.0 0.00 0.19 0.19 95 1016.0